FW7196 Weather Reports


time (UTC)temp
C
wind
direction
speed
KPH
gust
KPH
rain 1hr
cm
rain 24hr
cm
rain mn
cm
humidity
%
barometer
mb
20260506124537 13 249 1.6 8.0 0.00 0.25 0.00 87 1008.1
20260506124101 13 194 0.0 1.6 0.00 0.23 0.00 87 1007.8
20260506123543 13 68 0.0 3.2 0.00 0.23 0.00 87 1007.5
20260506123051 13 54 0.0 0.0 0.00 0.23 0.00 87 1007.4
20260506123036 13 0 1.6 9.7 0.00 0.25 0.00 87 1007.4
20260506122554 13 47 0.0 4.8 0.00 0.23 0.00 87 1007.9
20260506122036 13 51 0.0 0.0 0.00 0.23 0.00 87 1007.7
20260506121534 13 136 1.6 11.3 0.00 0.25 0.00 87 1007.6
20260506120912 13 113 1.6 4.8 0.00 0.23 0.00 87 1007.6
20260506120412 13 90 1.6 12.9 0.00 0.23 0.00 87 1007.7
20260506120035 13 0 1.6 11.3 0.00 0.25 0.00 88 1007.7
20260506114541 13 0 0.0 11.3 0.00 0.25 0.00 87 1007.9
20260506113035 12 50 1.6 9.7 0.00 0.25 0.00 90 1008.0
20260506111536 12 0 0.0 3.2 0.00 0.25 0.00 92 1007.9
20260506110039 11 0 0.0 0.0 0.00 0.25 0.00 92 1008.1
20260506104540 11 0 0.0 0.0 0.00 0.25 0.00 92 1008.0
20260506103039 11 0 0.0 0.0 0.00 0.25 0.00 92 1007.9
20260506101537 11 0 0.0 0.0 0.00 0.25 0.00 92 1008.0
20260506100039 11 0 0.0 0.0 0.00 0.25 0.00 91 1008.0
20260506094540 11 0 0.0 0.0 0.00 0.25 0.00 90 1007.9
20260506093035 11 0 0.0 0.0 0.00 0.25 0.00 89 1007.8
20260506091537 11 0 0.0 0.0 0.00 0.25 0.00 90 1007.8
20260506090036 11 0 0.0 0.0 0.00 0.25 0.00 90 1007.9
20260506084540 12 0 0.0 0.0 0.00 0.25 0.00 89 1007.9
20260506083034 12 0 0.0 0.0 0.00 0.25 0.00 89 1008.1
20260506081536 12 0 0.0 0.0 0.00 0.25 0.00 88 1008.4
20260506073037 13 34 0.0 3.2 0.00 0.25 0.00 87 1008.3
20260506071535 13 0 0.0 0.0 0.00 0.25 0.00 86 1008.4
20260506061535 14 0 0.0 3.2 0.00 0.25 0.00 85 1008.2
20260506044544 13 0 0.0 3.2 0.00 0.25 0.00 91 1008.2
20260506043035 13 0 0.0 3.2 0.00 0.25 0.00 91 1008.0
20260506041536 13 0 0.0 1.6 0.00 0.25 0.00 92 1008.1
20260506040036 13 0 0.0 0.0 0.00 0.25 0.00 93 1008.1
20260506034538 13 0 0.0 3.2 0.00 0.25 0.25 93 1008.0
20260506033036 13 66 0.0 3.2 0.00 0.25 0.25 93 1008.0
20260506031538 13 0 0.0 0.0 0.00 0.25 0.25 93 1008.0
20260506030055 13 0 0.0 0.0 0.00 0.25 0.25 93 1008.0
20260506024547 13 0 0.0 0.0 0.00 0.25 0.25 93 1008.0
20260506023039 13 0 0.0 0.0 0.00 0.25 0.25 93 1007.9
20260506021537 13 0 0.0 1.6 0.00 0.25 0.25 93 1007.9
20260506020035 13 0 0.0 0.0 0.00 0.25 0.25 93 1007.7
20260506014543 13 0 0.0 3.2 0.00 0.25 0.25 92 1007.5
20260506013036 13 0 0.0 0.0 0.00 0.25 0.25 92 1007.4
20260506011538 14 0 0.0 3.2 0.00 0.25 0.25 90 1007.5
20260506010045 15 0 0.0 3.2 0.00 0.25 0.25 90 1007.5
20260506004546 15 0 0.0 4.8 0.00 0.25 0.25 87 1007.2
20260506003040 15 0 1.6 9.7 0.00 0.25 0.25 84 1007.1
20260506001543 15 111 1.6 3.2 0.00 0.25 0.25 87 1007.3
20260506000038 15 0 0.0 0.0 0.00 0.25 0.25 90 1007.1
20260505234536 15 0 0.0 0.0 0.00 0.25 0.25 92 1007.1
20260505233035 15 0 0.0 0.0 0.00 0.25 0.25 92 1007.1
20260505231535 15 0 0.0 0.0 0.00 0.25 0.25 91 1006.7
20260505230046 15 0 0.0 0.0 0.00 0.25 0.25 89 1006.4
20260505224537 15 0 0.0 6.4 0.00 0.25 0.25 86 1006.0
20260505223036 15 126 3.2 8.0 0.00 0.25 0.25 85 1006.5
20260505221536 15 68 0.0 6.4 0.08 0.25 0.25 88 1006.0
20260505220041 15 0 0.0 6.4 0.13 0.25 0.25 90 1005.6
20260505214536 15 0 0.0 1.6 0.25 0.25 0.25 91 1005.1
20260505213043 15 0 0.0 14.5 0.25 0.25 0.25 86 1005.2
20260505211541 16 10 1.6 19.3 0.18 0.18 0.18 81 1006.3
20260505210036 18 109 3.2 22.5 0.10 0.10 0.10 73 1006.2
20260505204537 25 335 4.8 24.1 0.00 0.00 0.00 36 1004.2
20260505203041 25 141 3.2 12.9 0.00 0.00 0.00 35 1002.6
20260505201537 25 147 3.2 25.7 0.00 0.00 0.00 34 1002.7
20260505200038 26 215 4.8 29.0 0.00 0.00 0.00 32 1002.6
20260505194535 26 49 4.8 19.3 0.00 0.00 0.00 32 1002.6
20260505193052 26 189 6.4 25.7 0.00 0.00 0.00 32 1002.7
20260505191540 26 107 4.8 20.9 0.00 0.00 0.00 31 1002.9
20260505190042 26 162 3.2 19.3 0.00 0.00 0.00 32 1003.2
20260505184535 25 198 4.8 19.3 0.00 0.00 0.00 33 1003.2
20260505183036 25 46 3.2 17.7 0.00 0.00 0.00 33 1003.4
20260505181536 26 101 1.6 24.1 0.00 0.00 0.00 33 1003.7
20260505180040 25 164 6.4 16.1 0.00 0.00 0.00 34 1003.9
20260505174538 25 94 4.8 24.1 0.00 0.00 0.00 36 1004.4
20260505173035 25 159 4.8 20.9 0.00 0.00 0.00 34 1004.4
20260505171540 26 60 3.2 14.5 0.00 0.00 0.00 38 1004.5
20260505170038 25 72 4.8 17.7 0.00 0.00 0.00 40 1004.7
20260505164540 25 140 4.8 16.1 0.00 0.00 0.00 41 1004.9
20260505163041 24 99 6.4 20.9 0.00 0.00 0.00 42 1005.3
20260505161536 23 159 3.2 16.1 0.00 0.00 0.00 44 1005.6
20260505153043 22 171 3.2 14.5 0.00 0.00 0.00 49 1006.7
20260505151538 21 37 3.2 16.1 0.00 0.00 0.00 52 1007.1